Station RCPT2 - 8774770 - Rockport, TX Image indicating link to RSS feed of recent meteorological observations for station RCPT2


Conditions at RCPT2 as of
(7:30 am CDT)
1230 GMT on 04/20/2024:
     

Click on the graph icon in the table below to see a time series plot of the last five days of that observation.

5-day plot - Wind Direction Wind Direction (WDIR):ESE ( 110 deg true )
5-day plot - Wind Speed Wind Speed (WSPD): 8.0 kts
5-day plot - Wind Gust Wind Gust (GST): 11.1 kts
5-day plot - Atmospheric Pressure Atmospheric Pressure (PRES):29.91 in
5-day plot - Air Temperature Air Temperature (ATMP): 76.6 °F
5-day plot - Water Temperature Water Temperature (WTMP): 81.3 °F
5-day plot - Wind Speed at 10 Meters Wind Speed at 10 meters (WSPD10M): 9.7 kts
5-day plot - Wind Speed at 20 Meters Wind Speed at 20 meters (WSPD20M): 9.7 kts
5-day plot -  Wind Speed, Wind Gust and Atmospheric Pressure Combined plot of Wind Speed, Gust, and Air Pressure
NOS Water Level Observation Network Water Level
Previous observations
TIME
(CDT)
5-day plot - Wind Direction
WDIR
 
5-day plot - Wind Speed
WSPD
kts
5-day plot - Wind Gust
GST
kts
5-day plot - Wave Height
WVHT
ft
5-day plot - Dominant Wave Period
DPD
sec
5-day plot - Average Wave Period
APD
sec
5-day plot - Mean Wave Direction
MWD
 
5-day plot - Atmospheric Pressure
PRES
in
5-day plot - Pressure Tendency
PTDY
in
5-day plot - Air Temperature
ATMP
°F
5-day plot - Water Temperature
WTMP
°F
5-day plot - Dew Point
DEWP
°F
5-day plot - Salinity
SAL
psu
5-day plot - Visibility
VIS
nmi
5-day plot - Tide (above MLLW)
TIDE
ft
2024-04-20 07:24 am E 8.9 11.1----29.91- 76.6 81.5----
2024-04-20 07:18 amESE 8.0 11.1----29.91- 76.6 81.5----
2024-04-20 07:12 amESE 7.0 11.1----29.91- 76.6 81.5----
2024-04-20 07:06 amESE 7.0 11.1----29.91- 76.6 81.5----
2024-04-20 07:00 amESE 7.0 11.1----29.91+0.02 76.6 81.5----
2024-04-20 06:54 amESE 7.0 11.1----29.91- 76.6 81.5----
2024-04-20 06:48 amESE 7.0 11.1----29.91- 76.8 81.5----
2024-04-20 06:42 amESE 7.0 11.1----29.91- 76.6 81.5----
2024-04-20 06:36 am E 9.9 12.0----29.91- 76.6 81.5----
2024-04-20 06:30 amESE 6.0 8.9----29.91- 76.5 81.5----
2024-04-20 06:24 amESE 6.0 8.9----29.91- 76.6 81.5----
2024-04-20 06:18 amESE 6.0 8.0----29.91- 76.6 81.5----
2024-04-20 06:12 am E 7.0 9.9----29.91- 76.6 81.5----
2024-04-20 06:06 amESE 7.0 9.9----29.91- 76.6 81.5----
2024-04-20 06:00 am E 8.0 9.9----29.91+0.02 76.6 81.5----
2024-04-20 05:54 am E 8.9 9.9----29.90- 76.6 81.7----
2024-04-20 05:48 am E 7.0 8.9----29.91- 76.6 81.5----
2024-04-20 05:42 amESE 5.1 9.9----29.91- 76.8 81.5----
2024-04-20 05:36 am E 6.0 8.0----29.90- 76.8 81.7----
2024-04-20 05:30 amESE 5.1 7.0----29.90-- 81.7----
2024-04-20 05:24 amESE 6.0 8.0----29.90-- 81.7----
2024-04-20 05:18 amESE 6.0 8.0----29.90- 76.8 81.7----
2024-04-20 05:12 amESE 5.1 8.0----29.91- 76.6 81.7----
2024-04-20 05:06 amESE 5.1 8.0----29.91- 76.6 81.7----
2024-04-20 05:00 amESE 5.1 7.0----29.91-0.01- 81.7----
2024-04-20 04:54 amESE 5.1 8.0----29.91-- 81.7----
2024-04-20 04:48 am E 2.9 6.0----29.90- 76.6 81.7----
2024-04-20 04:42 amESE 5.1 7.0----29.90- 76.5 81.7----
2024-04-20 04:36 amESE 5.1 7.0----29.90- 76.5 81.7----
2024-04-20 04:30 amESE 5.1 7.0----29.90- 76.5 81.7----
2024-04-20 04:24 amESE 5.1 7.0----29.90- 76.5 81.7----
2024-04-20 04:18 amESE 4.1 8.0----29.89- 76.5 81.9----
2024-04-20 04:12 amESE 5.1 8.0----29.89- 76.5 81.9----
2024-04-20 04:06 am SE 5.1 8.0----29.89- 76.3 81.9----
2024-04-20 04:00 amESE 5.1 8.9----29.88-0.03 76.5 81.9----
2024-04-20 03:54 amESE 7.0 9.9----29.88- 76.5 81.9----
2024-04-20 03:48 amESE 6.0 8.0----29.88- 76.3 81.9----
2024-04-20 03:42 am SE 5.1 8.9----29.88- 76.1 81.9----
2024-04-20 03:36 amESE 7.0 9.9----29.88- 76.3 81.9----
2024-04-20 03:30 amESE 8.0 11.1----29.88-- 81.9----
2024-04-20 03:24 amESE 7.0 9.9----29.88-- 81.9----
2024-04-20 03:18 amESE 7.0 9.9----29.88- 76.1 81.9----
2024-04-20 03:12 am E 7.0 11.1----29.89- 76.1 81.9----
2024-04-20 03:06 am E 5.1 9.9----29.89- 76.3 81.9----
2024-04-20 03:00 am-------29.89-0.04- 82.0----
2024-04-20 02:54 am-------29.89-- 82.0----
2024-04-20 02:48 am E 5.1 9.9----29.89- 76.3 82.0----
2024-04-20 02:42 am E 8.0 12.0----29.89- 76.3 82.0----
2024-04-20 02:36 amESE 6.0 9.9----29.90- 76.3 82.0----
2024-04-20 02:30 amESE 7.0 11.1----29.90- 76.3 82.0----
2024-04-20 02:24 amESE 7.0 12.0----29.90- 76.3 82.0----
2024-04-20 02:18 am SE 9.9 13.0----29.90- 76.3 82.0----
2024-04-20 02:12 am SE 7.0 11.1----29.90- 76.3 82.0----
2024-04-20 02:06 am SE 8.9 12.0----29.91- 76.3 82.0----
2024-04-20 02:00 am SE 8.9 13.0----29.91+0.00 76.1 82.0----
2024-04-20 01:54 amESE 7.0 12.0----29.91- 76.3 82.0----
2024-04-20 01:48 amESE 7.0 11.1----29.91- 75.9 82.0----
2024-04-20 01:42 amESE 8.0 13.0----29.90- 76.3 82.0----
2024-04-20 01:36 am SE 8.9 13.0----29.91- 76.1 82.0----
2024-04-20 01:30 am SE 8.9 13.0----29.91- 76.3 82.0----
2024-04-20 01:24 am SE 8.0 13.0----29.91- 76.3 82.0----
2024-04-20 01:18 amESE 8.9 13.0----29.91- 76.1 82.0----
2024-04-20 01:12 am SE 11.1 13.0----29.91- 76.1 81.9----
2024-04-20 01:06 am SE 8.9 14.0----29.91- 76.1 81.9----
2024-04-20 01:00 am SE 11.1 15.0----29.91+0.00 76.1 81.7----
2024-04-20 12:54 am SE 9.9 15.0----29.92- 76.3 81.7----
2024-04-20 12:48 am SE 11.1 14.0----29.92- 76.3 81.7----
2024-04-20 12:42 am SE 12.0 15.9----29.92- 76.1 81.7----
2024-04-20 12:36 am SE 9.9 15.0----29.93- 76.3 82.0----
2024-04-20 12:30 am SE 9.9 14.0----29.93- 76.3 82.0----
2024-04-20 12:24 am SE 11.1 15.0----29.93- 76.3 82.2----
2024-04-20 12:18 am SE 9.9 14.0----29.93- 76.5 82.0----
2024-04-20 12:12 am SE 9.9 15.0----29.93- 76.3 82.0----
2024-04-20 12:06 am SE 9.9 14.0----29.93- 76.3 82.2----
2024-04-20 12:00 am SE 11.1 14.0----29.93+0.06 76.3 82.2----
2024-04-19 11:54 pm SE 9.9 13.0----29.93- 76.3 82.2----
2024-04-19 11:48 pm SE 8.0 13.0----29.93- 76.3 82.2----
2024-04-19 11:42 pmESE 8.0 13.0----29.93- 76.3 82.2----
2024-04-19 11:36 pmESE 8.9 13.0----29.93- 76.3 82.2----
2024-04-19 11:30 pmESE 8.9 14.0----29.92- 76.1 82.2----
2024-04-19 11:24 pmESE 8.0 13.0----29.92- 76.1 82.2----
2024-04-19 11:18 pmESE 9.9 15.0----29.92- 76.3 82.2----
2024-04-19 11:12 pmESE 9.9 14.0----29.92- 76.5 82.2----
2024-04-19 11:06 pmESE 8.9 15.0----29.92- 76.5 82.4----
2024-04-19 11:00 pmESE 8.9 15.0----29.92+0.05 76.6 82.2----
2024-04-19 10:54 pmESE 8.9 14.0----29.92- 76.3 82.4----
2024-04-19 10:48 pmESE 9.9 15.9----29.93- 76.5 82.4----
2024-04-19 10:42 pmESE 9.9 14.0----29.92- 76.3 82.2----
2024-04-19 10:36 pmESE 8.9 15.0----29.92- 76.6 82.4----
2024-04-19 10:30 pmESE 9.9 18.1----29.92- 76.5 82.4----
2024-04-19 10:24 pmESE 8.9 15.0----29.91- 76.8 82.4----
2024-04-19 10:18 pmESE 11.1 15.9----29.91- 76.5 82.4----
2024-04-19 10:12 pmESE 12.0 17.1----29.91- 76.5 82.4----
2024-04-19 10:06 pmESE 11.1 15.9----29.91- 76.6 82.4----
2024-04-19 10:00 pmESE 11.1 17.1----29.91+0.04 76.6 82.4----
2024-04-19 09:54 pmESE 12.0 15.9----29.91- 76.5 82.4----
2024-04-19 09:48 pmESE 12.0 15.9----29.90- 76.5 82.6----
2024-04-19 09:42 pmESE 12.0 18.1----29.89- 76.6 82.6----
2024-04-19 09:36 pmESE 9.9 15.9----29.89- 76.8 82.6----
2024-04-19 09:30 pmESE 13.0 17.1----29.89- 76.6 82.6----
2024-04-19 09:24 pmESE 13.0 17.1----29.88- 76.6 82.6----
2024-04-19 09:18 pmESE 14.0 18.1----29.88- 76.6 82.6----
2024-04-19 09:12 pmESE 13.0 15.9----29.88- 76.8 82.8----
2024-04-19 09:06 pmESE 14.0 19.0----29.88- 76.6 82.6----
2024-04-19 09:00 pmESE 15.0 19.0----29.87+0.00 76.8 82.6----
2024-04-19 08:54 pmESE 12.0 18.1----29.87- 77.0 82.6----
2024-04-19 08:48 pmESE 12.0 17.1----29.87- 77.0 82.6----
2024-04-19 08:42 pmESE 12.0 15.9----29.87- 76.8 82.8----
2024-04-19 08:36 pmESE 13.0 18.1----29.87- 76.6 82.6----
2024-04-19 08:30 pmESE 14.0 17.1----29.87- 77.0 82.8----
2024-04-19 08:24 pmESE 12.0 18.1----29.87- 76.6 82.8----
2024-04-19 08:18 pm E 14.0 18.1----29.87- 76.8 82.8----
2024-04-19 08:12 pmESE 13.0 17.1----29.87- 76.8 82.8----
2024-04-19 08:06 pmESE 12.0 15.9----29.87- 77.0 82.8----
2024-04-19 08:00 pmESE 13.0 19.0----29.87+0.00 77.2 82.8----
2024-04-19 07:54 pm E 14.0 18.1----29.87- 77.2 82.8----
2024-04-19 07:48 pm E 13.0 17.1----29.86- 77.4 82.8----
2024-04-19 07:42 pm E 15.0 18.1----29.86- 77.4 82.8----
2024-04-19 07:36 pm E 14.0 19.0----29.86- 77.4 82.9----
2024-04-19 07:30 pm E 17.1 19.0----29.86- 77.4 82.9----
2024-04-19 07:24 pm E 14.0 17.1----29.86- 77.7 82.9----
2024-04-19 07:18 pm E 14.0 17.1----29.86- 77.9 82.9----
2024-04-19 07:12 pm E 13.0 19.0----29.86- 78.3 82.9----
2024-04-19 07:06 pm E 13.0 15.9----29.86- 78.6 82.9----
2024-04-19 07:00 pm E 12.0 17.1----29.87-0.01 79.0 82.9----
2024-04-19 06:54 pm E 15.0 15.9----29.87- 79.3 82.9----
2024-04-19 06:48 pm E 12.0 15.9----29.87- 79.9 82.9----
2024-04-19 06:42 pm E 12.0 15.9----29.87- 80.2 82.9----
2024-04-19 06:36 pm E 12.0 15.9----29.87- 80.6 82.9----
2024-04-19 06:30 pm E 12.0 14.0----29.87- 80.6 82.9----
2024-04-19 06:24 pm E 12.0 14.0----29.88- 80.8 82.9----
2024-04-19 06:18 pmESE 9.9 14.0----29.88- 81.1 82.9----
2024-04-19 06:12 pmESE 8.9 13.0----29.88- 81.1 82.9----
2024-04-19 06:06 pm E 11.1 15.9----29.87- 81.1 82.9----
2024-04-19 06:00 pmESE 11.1 15.0----29.87-0.01 81.5 82.9----
2024-04-19 05:54 pmESE 8.9 15.0----29.87- 81.7 82.9----
2024-04-19 05:48 pmESE 8.9 13.0----29.88- 81.9 82.9----
2024-04-19 05:42 pmESE 8.0 12.0----29.88- 82.0 82.9----
2024-04-19 05:36 pmESE 8.9 13.0----29.88- 82.0 82.9----
2024-04-19 05:30 pmESE 8.0 13.0----29.88- 82.2 82.9----
2024-04-19 05:24 pmESE 8.0 14.0----29.88- 81.9 82.9----
2024-04-19 05:18 pmESE 8.9 14.0----29.88- 81.7 82.9----
2024-04-19 05:12 pmESE 8.9 14.0----29.88- 81.7 82.9----
2024-04-19 05:06 pmESE 9.9 14.0----29.87- 81.9 82.9----
2024-04-19 05:00 pmESE 9.9 14.0----29.87-0.04 81.9 82.9----
2024-04-19 04:54 pmESE 9.9 15.0----29.87- 81.7 82.8----
2024-04-19 04:48 pmESE 12.0 14.0----29.87- 81.9 82.8----
2024-04-19 04:42 pmESE 11.1 14.0----29.87- 81.7 82.8----
2024-04-19 04:36 pmESE 9.9 15.0----29.87- 81.9 82.8----
2024-04-19 04:30 pmESE 9.9 15.9----29.87- 82.0 82.8----
2024-04-19 04:24 pmESE 9.9 14.0----29.87- 81.9 82.8----
2024-04-19 04:18 pmESE 11.1 14.0----29.88- 82.0 82.8----
2024-04-19 04:12 pmESE 8.9 15.9----29.88- 81.9 82.8----
2024-04-19 04:06 pmESE 9.9 14.0----29.88- 81.3 82.8----
2024-04-19 04:00 pmESE 9.9 14.0----29.88-0.05 81.1 82.6----
2024-04-19 03:54 pmESE 9.9 15.9----29.88- 81.1 82.4----
2024-04-19 03:48 pmESE 8.0 14.0----29.88- 81.1 82.6----
2024-04-19 03:42 pmESE 9.9 15.0----29.88- 81.3 82.4----
2024-04-19 03:36 pmESE 9.9 13.0----29.89- 81.1 82.6----
2024-04-19 03:30 pmESE 8.9 15.0----29.89- 81.5 82.2----
2024-04-19 03:24 pmESE 9.9 12.0----29.89- 81.5 82.4----
2024-04-19 03:18 pmESE 8.9 14.0----29.89- 81.9 82.4----
2024-04-19 03:12 pmESE 9.9 14.0----29.89- 82.2 82.2----
2024-04-19 03:06 pmESE 12.0 14.0----29.89- 82.2 81.1----
2024-04-19 03:00 pmESE 9.9 15.9----29.89-0.05 82.4 81.7----
2024-04-19 02:54 pm E 11.1 14.0----29.89- 82.8 82.2----
2024-04-19 02:48 pmESE 11.1 13.0----29.89- 82.8 82.0----
2024-04-19 02:42 pmESE 12.0 15.0----29.89- 82.4 81.9----
2024-04-19 02:36 pmESE 8.9 13.0----29.90- 82.9 81.9----
2024-04-19 02:30 pmESE 8.0 12.0----29.90- 83.3 81.9----
2024-04-19 02:24 pmESE 8.0 12.0----29.91- 83.5 81.3----
2024-04-19 02:18 pmESE 8.0 12.0----29.91- 83.3 81.3----
2024-04-19 02:12 pmESE 8.9 11.1----29.91- 83.3 81.0----
2024-04-19 02:06 pmESE 8.0 11.1----29.91- 83.1 81.0----
2024-04-19 02:00 pmESE 8.0 11.1----29.91-0.01 83.7 80.8----
2024-04-19 01:54 pmESE 8.9 11.1----29.91- 83.7 81.0----
2024-04-19 01:48 pm E 8.9 11.1----29.91- 83.3 81.0----
2024-04-19 01:42 pm E 11.1 13.0----29.91- 82.9 81.0----
2024-04-19 01:36 pmESE 8.0 11.1----29.91- 83.1 81.0----
2024-04-19 01:30 pmESE 6.0 9.9----29.92- 83.7 81.0----
2024-04-19 01:24 pmESE 8.9 12.0----29.92- 83.5 81.1----
2024-04-19 01:18 pmESE 7.0 9.9----29.92- 83.8 80.8----
2024-04-19 01:12 pmESE 7.0 9.9----29.92- 83.1 80.6----
2024-04-19 01:06 pmESE 8.0 9.9----29.93- 83.3 80.6----
2024-04-19 01:00 pmESE 7.0 9.9----29.93+0.01 83.3 80.6----
2024-04-19 12:54 pmESE 6.0 8.9----29.93- 83.3 80.6----
2024-04-19 12:48 pmESE 7.0 11.1----29.93- 83.1 80.6----
2024-04-19 12:42 pmESE 6.0 8.9----29.93- 83.1 80.6----
2024-04-19 12:36 pmESE 5.1 8.0----29.94- 83.5 80.6----
2024-04-19 12:30 pmESE 6.0 11.1----29.94- 82.6 80.6----
2024-04-19 12:24 pmESE 6.0 8.9----29.94- 83.1 80.4----
2024-04-19 12:18 pmESE 6.0 11.1----29.94- 83.3 80.6----
2024-04-19 12:12 pm E 7.0 12.0----29.93- 83.1 80.4----
2024-04-19 12:06 pm E 7.0 11.1----29.93- 83.3 80.4----
2024-04-19 12:00 pm E 4.1 8.0----29.93+0.03 83.1 80.4----
2024-04-19 11:54 am E 5.1 8.0----29.94- 83.1 80.4----
2024-04-19 11:48 am E 5.1 8.0----29.94- 83.3 80.4----
2024-04-19 11:42 am E 4.1 8.0----29.94- 83.7 80.4----
2024-04-19 11:36 am E 5.1 8.9----29.93- 83.3 80.4----
2024-04-19 11:30 am E 8.0 9.9----29.93- 83.1 80.4----
2024-04-19 11:24 am E 8.0 11.1----29.93- 82.8 80.2----
2024-04-19 11:18 am E 4.1 8.0----29.93- 82.4 80.2----
2024-04-19 11:12 am E 4.1 7.0----29.93- 82.2 80.2----
2024-04-19 11:06 am E 7.0 8.9----29.93- 81.9 80.2----
2024-04-19 11:00 am E 5.1 8.9----29.93+0.06 81.7 80.2----
2024-04-19 10:54 amENE 7.0 9.9----29.93- 81.3 80.2----
2024-04-19 10:48 amENE 6.0 8.9----29.92- 81.1 80.2----
2024-04-19 10:42 amENE 7.0 8.9----29.92- 81.3 80.2----
2024-04-19 10:36 am E 7.0 8.9----29.92- 81.1 80.2----
2024-04-19 10:30 amENE 7.0 8.0----29.92- 80.8 80.2----
2024-04-19 10:24 am E 5.1 8.0----29.92- 81.0 80.2----
2024-04-19 10:18 amENE 6.0 8.0----29.92- 80.8 80.2----
2024-04-19 10:12 amENE 6.0 8.0----29.91- 81.0 80.1----
2024-04-19 10:06 am E 5.1 6.0----29.92- 81.1 80.1----
2024-04-19 10:00 amENE 2.9 5.1----29.92+0.05 81.1 80.1----
2024-04-19 09:54 am E 1.9 4.1----29.92- 81.3 80.1----
2024-04-19 09:48 am E 4.1 4.1----29.92- 81.0 80.1----
2024-04-19 09:42 am E 1.9 2.9----29.93- 80.8 80.1----
2024-04-19 09:36 am E 1.9 2.9----29.93- 80.6 80.1----
2024-04-19 09:30 am E 1.0 2.9----29.92- 80.2 80.1----
2024-04-19 09:24 amESE 1.9 1.9----29.92- 79.3 80.1----
2024-04-19 09:18 am E 2.9 4.1----29.91- 79.7 80.1----
2024-04-19 09:12 am E 1.9 6.0----29.91- 79.0 80.1----
2024-04-19 09:06 am E 2.9 5.1----29.91- 78.4 80.1----
2024-04-19 09:00 amESE 4.1 5.1----29.91+0.04 77.9 80.1----
2024-04-19 08:54 am E 4.1 7.0----29.90- 77.5 80.1----
2024-04-19 08:48 am E 2.9 7.0----29.90- 77.2 80.1----
2024-04-19 08:42 am E 4.1 7.0----29.89- 77.0 80.1----
2024-04-19 08:36 am E 5.1 7.0----29.89- 76.8 80.1----
2024-04-19 08:30 am E 4.1 7.0----29.88- 76.8 80.1----
2024-04-19 08:24 am E 4.1 7.0----29.88- 76.5 80.1----
2024-04-19 08:18 am E 5.1 12.0----29.87- 76.5 80.1----
2024-04-19 08:12 am E 9.9 13.0----29.86- 76.3 80.1----
2024-04-19 08:06 am E 5.1 11.1----29.87- 76.3 80.1----
2024-04-19 08:00 am E 8.0 11.1----29.87+0.01 76.1 80.1----
2024-04-19 07:54 am E 8.0 9.9----29.87- 75.9 80.1----